Wind_Speed
31 29 26 20 24 21 14 17 28 22 29 33 29 20 6 12 10 36 54 56 55 49 46 54 60 67 61 54 68 60 45 67 60 55 63 65 63 64 63 60 58 55 51
30 24 22 17 20 19 21 17 25 25 23 30 18 13 9 4 4 10 24 36 47 44 40 46 47 59 61 54 38 41 41 51 66 62 63 65 69 67 68 66 65 63 59
28 23 21 18 17 16 18 15 18 19 28 22 21 10 4 8 10 15 11 24 40 44 42 39 38 46 59 56 53 49 52 51 48 50 61 70 68 65 66 69 66 66 67
30 27 25 25 15 16 17 16 14 15 21 25 19 6 5 12 17 17 12 14 20 21 29 35 26 32 37 41 39 44 53 45 44 41 58 62 72 69 67 63 64 56 55
27 23 21 26 21 16 16 18 16 10 10 16 14 13 17 16 13 20 27 19 31 33 25 24 31 38 33 29 31 35 41 38 40 38 48 53 51 59 59 62 58 61 61
14 6 6 6 11 14 15 18 19 17 15 11 18 8 10 13 12 18 30 30 11 32 37 29 36 31 22 23 22 20 19 26 21 32 36 41 44 47 54 61 59 56 59
15 16 9 12 8 8 11 2 7 13 8 8 8 11 12 3 9 16 30 23 17 10 14 11 15 23 26 33 37 30 29 33 36 42 32 32 33 36 37 42 46 56 62
19 16 15 13 10 8 6 8 8 10 11 11 10 10 13 14 11 9 9 10 13 4 4 1 4 5 8 10 15 20 23 26 29 31 33 31 30 31 38 39 39 40 42
22 22 21 20 16 12 7 7 5 3 3 2 5 5 5 5 5 4 4 3 1 3 6 7 6 7 9 12 14 18 23 27 29 30 33 33 34 35 37 40 41 44 49
23 24 26 26 21 18 13 10 9 7 7 7 7 7 8 7 7 8 7 7 9 10 11 14 15 16 18 19 21 22 24 28 31 35 37 40 43 44 45 47 49 50 52
27 25 25 25 23 21 19 16 14 12 13 12 13 14 14 14 15 15 15 15 16 18 19 20 22 24 24 25 27 29 31 34 36 38 41 45 47 49 51 53 56 59 61
25 26 24 23 23 23 23 21 19 18 18 18 19 20 21 22 22 22 22 22 23 24 25 26 28 29 30 31 33 35 37 38 40 42 44 46 48 49 52 54 56 60 63
25 23 23 21 23 25 24 24 24 23 23 22 22 24 26 26 28 28 27 28 29 30 32 33 34 35 36 38 40 41 43 44 46 47 49 51 53 54 56 58 59 61 63
28 25 22 21 23 24 26 26 26 27 28 28 25 25 28 30 32 33 34 35 36 37 38 40 41 42 43 45 47 48 49 51 53 54 56 58 60 63 64 65 66 68 70
28 27 23 22 24 25 26 28 29 30 30 29 31 32 32 32 35 37 38 40 40 41 43 44 46 48 49 51 52 54 56 58 60 61 63 65 66 67 69 70 72 73 74
28 27 26 24 26 27 28 30 31 32 33 34 34 37 39 40 42 44 48 50 50 48 49 50 52 54 56 58 60 61 63 65 66 68 69 71 72 73 75 77 78 80 81
27 29 30 29 29 31 33 35 35 36 37 39 41 43 45 46 46 48 48 51 52 53 54 56 57 59 61 63 65 67 68 70 72 73 75 77 78 81 82 83 84 85 86
30 31 32 31 32 33 36 37 39 40 42 43 44 45 47 49 49 50 51 51 53 55 56 59 61 63 66 68 70 71 74 76 78 80 82 83 85 87 88 89 90 90 91
29 31 32 32 34 36 37 39 41 42 44 46 48 49 50 51 51 53 54 55 57 59 61 63 66 68 71 73 75 78 80 82 83 84 86 87 87 87 88 90 91 93 94
28 29 30 32 35 37 40 42 44 46 47 49 50 51 52 54 56 57 59 61 62 64 66 69 71 73 76 78 80 80 79 78 79 81 83 85 88 90 91 91 91 90 88
30 32 33 35 37 40 41 41 43 44 47 50 52 53 56 57 59 61 63 65 66 69 71 74 75 76 76 75 76 77 79 81 83 86 87 87 86 83 81 79 77 76 76
29 31 33 35 37 39 43 46 48 51 53 55 57 60 60 62 63 66 68 71 74 75 75 74 74 75 76 78 80 82 83 84 84 82 79 77 74 72 71 71 71 70 69
34 35 38 41 44 48 51 52 54 55 57 58 59 59 61 65 68 70 71 71 71 73 75 75 76 78 80 82 82 81 80 77 74 70 68 68 68 69 69 68 66 64 59
40 42 45 48 50 52 53 54 55 56 57 59 62 64 65 66 68 70 71 72 73 75 77 78 80 81 80 78 75 73 70 67 66 66 66 66 66 66 65 63 59 55 49
45 47 49 50 50 51 52 54 57 59 60 61 63 65 66 67 70 72 72 74 77 78 78 78 76 73 70 68 66 65 65 66 66 66 65 64 63 62 60 56 52 49 45
43 45 47 50 51 53 55 56 58 59 60 62 64 66 68 69 71 73 76 77 76 75 73 70 68 66 64 63 64 65 65 64 63 63 62 61 59 56 53 50 46 43 40
Wind_Direction
310 304 306 291 286 284 289 311 322 310 317 327 317 310 284 308 239 240 232 228 231 235 235 239 232 234 238 248 247 246 241 238 230 239 240 239 239 236 238 240 243 247 247
311 302 309 286 277 269 287 314 323 322 330 331 314 314 194 176 74 205 211 223 229 233 235 239 232 230 232 233 233 232 249 243 233 242 242 242 242 242 239 240 240 244 245
325 325 314 307 297 291 305 328 334 346 1 355 316 281 84 329 165 179 214 234 235 242 240 238 232 231 236 237 270 271 266 270 251 256 244 240 241 248 248 248 250 248 254
326 329 326 323 310 297 313 325 330 342 350 356 2 169 211 199 193 185 192 199 234 216 221 204 213 229 228 241 230 244 253 252 244 258 242 243 243 246 248 250 243 254 242
320 320 322 319 323 316 308 306 306 315 315 340 53 87 131 146 174 161 174 183 176 188 190 205 197 199 212 237 243 239 240 247 246 246 242 240 249 245 247 245 246 240 232
301 312 347 317 309 314 304 290 289 293 300 320 313 36 46 132 132 207 211 196 203 192 200 188 212 214 222 230 266 277 242 224 224 232 234 238 237 241 238 233 237 239 242
288 283 321 336 358 31 43 301 63 69 54 38 17 42 85 95 81 118 177 207 183 195 194 196 227 237 251 257 267 271 262 260 250 262 262 254 248 240 230 230 236 241 240
276 265 284 290 287 327 347 9 37 49 57 55 61 48 36 54 35 51 86 184 252 265 267 206 240 243 249 267 280 282 283 279 273 275 272 270 259 257 257 255 246 249 249
275 266 268 287 281 264 270 291 298 316 323 43 21 22 25 41 70 56 49 41 357 279 284 284 297 300 290 296 289 279 272 268 270 271 273 271 271 268 268 267 259 254 252
263 270 264 270 277 271 262 261 275 286 300 306 309 306 310 307 311 304 289 279 273 271 282 293 299 303 305 302 299 297 290 281 272 266 263 262 262 259 256 258 259 258 257
258 260 270 269 272 269 263 261 264 273 280 279 283 286 284 282 285 285 283 282 281 283 283 281 279 282 283 286 288 289 290 290 288 286 281 274 269 267 264 260 256 255 255
263 265 260 272 267 264 261 265 267 266 271 276 280 281 281 282 280 276 275 276 277 278 278 278 279 280 282 283 284 283 282 281 281 280 279 278 277 276 275 274 271 268 264
264 265 262 261 270 265 262 264 267 271 272 271 276 284 286 286 284 281 283 286 289 290 290 291 291 290 289 288 286 284 283 281 280 278 277 276 275 274 274 274 275 274 274
273 266 265 267 266 269 270 274 276 276 275 274 275 280 286 293 296 294 292 293 293 292 291 290 287 286 286 285 284 283 281 279 278 277 277 277 276 275 275 273 273 273 273
275 269 261 265 267 270 273 276 278 279 280 281 282 284 285 286 287 288 289 290 291 292 292 293 294 294 294 293 291 289 287 285 284 282 280 280 279 279 278 277 276 275 274
280 275 264 263 267 271 274 275 276 276 277 279 281 282 285 286 285 287 289 287 287 289 292 293 294 294 293 292 292 292 290 288 287 286 285 284 283 283 283 283 281 280 279
291 283 273 268 268 270 273 274 278 280 284 286 287 288 287 289 290 290 290 291 291 292 295 295 293 293 292 292 292 291 291 290 289 289 288 287 287 287 286 285 284 283 282
285 279 274 270 272 274 276 281 284 286 288 289 290 291 293 293 293 294 294 294 294 294 296 295 294 294 294 294 293 291 290 291 290 289 289 288 288 288 288 287 286 285 284
284 281 275 274 277 280 284 286 288 290 292 292 293 294 295 295 295 294 294 294 294 294 294 294 294 294 294 293 292 291 290 290 291 291 291 291 290 289 289 288 288 288 287
286 283 281 282 285 288 291 294 294 295 295 296 296 295 296 297 297 297 296 296 295 295 294 294 293 293 292 292 292 293 293 293 293 293 293 293 293 293 293 292 291 290 289
289 288 289 290 292 294 296 298 299 299 300 301 303 302 301 300 298 298 297 296 295 295 296 296 296 296 296 296 295 296 296 297 298 299 298 298 296 295 293 292 291 290 289
288 288 289 292 295 298 299 298 298 299 300 300 301 301 300 300 300 299 300 300 300 300 299 299 298 298 298 299 299 300 301 301 300 299 298 296 295 294 294 293 293 293 292
292 293 295 296 296 295 295 296 297 299 300 299 299 301 301 302 303 303 303 302 302 301 301 301 301 301 302 302 302 302 301 300 298 297 296 295 296 296 295 295 295 294 291
290 291 293 295 296 297 298 298 298 299 299 299 300 301 302 302 303 303 303 303 303 303 303 303 304 303 303 302 302 301 300 299 297 296 296 297 297 296 296 296 295 292 287
292 293 295 297 298 298 298 297 297 298 300 300 301 302 302 302 302 303 304 304 304 305 304 303 303 303 303 302 302 301 300 299 299 298 299 298 298 298 297 295 293 290 286
295 296 296 297 298 298 299 300 300 301 302 302 302 301 302 303 304 304 305 305 304 304 305 305 305 304 303 302 302 301 301 301 301 300 300 299 299 297 296 293 291 287 283
Height
5609 5605 5600 5596 5593 5589 5583 5579 5573 5567 5558 5548 5541 5528 5521 5521 5523 5531 5542 5555 5567 5577 5583 5590 5597 5609 5621 5630 5630 5634 5642 5643 5649 5651 5656 5662 5666 5670 5676 5679 5684 5688 5689
5603 5599 5595 5590 5588 5584 5578 5573 5567 5560 5552 5546 5541 5530 5523 5522 5525 5530 5538 5549 5560 5570 5574 5580 5586 5597 5607 5617 5617 5622 5625 5630 5638 5641 5644 5648 5653 5657 5661 5664 5669 5672 5676
5598 5592 5588 5584 5581 5577 5573 5568 5561 5556 5548 5542 5536 5532 5526 5522 5530 5539 5544 5551 5559 5564 5568 5573 5579 5586 5594 5608 5609 5610 5613 5617 5620 5625 5629 5634 5639 5643 5646 5651 5656 5659 5660
5594 5588 5584 5580 5576 5572 5568 5564 5559 5556 5551 5543 5534 5530 5529 5529 5532 5536 5542 5548 5553 5559 5555 5563 5574 5582 5589 5597 5597 5598 5602 5604 5608 5611 5616 5620 5625 5629 5633 5637 5642 5643 5644
5591 5586 5582 5577 5572 5569 5565 5561 5558 5557 5555 5552 5543 5538 5534 5533 5533 5534 5541 5547 5547 5551 5553 5561 5564 5567 5575 5583 5585 5586 5590 5591 5595 5600 5603 5605 5608 5612 5616 5621 5625 5627 5628
5589 5585 5582 5578 5572 5567 5564 5561 5557 5555 5554 5551 5548 5542 5541 5539 5535 5536 5543 5545 5545 5547 5552 5551 5556 5560 5566 5570 5575 5578 5581 5582 5584 5587 5588 5590 5592 5596 5599 5604 5607 5609 5614
5586 5584 5582 5578 5574 5569 5565 5561 5558 5555 5553 5550 5547 5545 5542 5541 5539 5540 5544 5545 5543 5545 5545 5546 5553 5556 5557 5562 5566 5567 5570 5573 5575 5578 5578 5579 5581 5582 5585 5586 5589 5592 5595
5581 5580 5578 5576 5574 5570 5566 5562 5559 5556 5554 5553 5552 5551 5548 5546 5543 5542 5545 5545 5545 5545 5546 5547 5550 5552 5554 5556 5556 5557 5559 5561 5562 5563 5564 5564 5566 5569 5572 5573 5574 5575 5577
5575 5575 5574 5571 5570 5568 5566 5562 5559 5556 5553 5551 5550 5549 5548 5548 5549 5548 5547 5548 5548 5548 5548 5547 5546 5546 5548 5548 5549 5552 5554 5556 5555 5554 5555 5555 5555 5556 5556 5557 5558 5560 5561
5566 5567 5567 5566 5565 5564 5562 5560 5558 5555 5553 5550 5549 5547 5546 5546 5545 5546 5546 5545 5546 5547 5546 5544 5543 5544 5543 5543 5544 5544 5545 5545 5544 5543 5543 5544 5544 5543 5544 5544 5544 5544 5545
5557 5558 5559 5558 5558 5558 5557 5555 5554 5553 5552 5550 5549 5547 5546 5546 5544 5543 5542 5542 5542 5541 5540 5540 5539 5538 5537 5536 5534 5532 5531 5532 5531 5529 5528 5527 5526 5526 5527 5526 5527 5528 5529
5550 5550 5550 5552 5551 5551 5550 5549 5548 5547 5545 5544 5543 5543 5542 5540 5539 5538 5536 5535 5534 5534 5534 5533 5531 5530 5528 5526 5524 5522 5522 5520 5519 5518 5516 5513 5511 5511 5509 5508 5506 5505 5506
5543 5543 5543 5543 5544 5544 5543 5543 5542 5541 5540 5538 5536 5534 5533 5532 5530 5529 5527 5525 5524 5523 5521 5519 5518 5516 5514 5513 5511 5511 5510 5508 5506 5503 5501 5499 5497 5495 5493 5490 5489 5487 5484
5537 5536 5536 5536 5537 5537 5536 5535 5534 5533 5532 5531 5530 5528 5526 5523 5521 5519 5517 5516 5513 5511 5509 5507 5505 5503 5502 5500 5498 5496 5494 5493 5490 5487 5483 5481 5477 5475 5474 5471 5470 5468 5465
5531 5530 5530 5530 5530 5530 5529 5528 5527 5525 5523 5521 5520 5518 5517 5516 5515 5512 5509 5506 5503 5500 5497 5494 5490 5487 5484 5481 5479 5477 5475 5472 5469 5465 5463 5460 5457 5455 5451 5448 5445 5443 5440
5525 5524 5523 5523 5523 5523 5522 5521 5519 5516 5514 5512 5510 5508 5505 5503 5501 5498 5496 5493 5490 5486 5483 5479 5476 5473 5470 5466 5462 5457 5452 5448 5444 5441 5438 5435 5431 5428 5424 5419 5417 5414 5411
5519 5518 5516 5515 5515 5513 5512 5510 5509 5507 5505 5503 5500 5497 5494 5491 5488 5484 5481 5477 5474 5470 5466 5463 5460 5457 5452 5447 5442 5437 5431 5426 5421 5417 5412 5408 5403 5397 5394 5389 5385 5381 5377
5513 5511 5509 5507 5506 5504 5501 5500 5498 5495 5493 5490 5487 5484 5480 5476 5473 5469 5466 5462 5458 5453 5449 5445 5440 5435 5429 5425 5419 5413 5408 5402 5396 5390 5384 5379 5374 5368 5362 5357 5352 5347 5343
5505 5503 5501 5499 5497 5495 5492 5490 5487 5484 5481 5477 5474 5470 5466 5462 5457 5453 5450 5445 5441 5436 5430 5425 5419 5413 5407 5401 5395 5389 5382 5376 5369 5361 5355 5349 5342 5336 5329 5322 5317 5309 5304
5497 5495 5493 5491 5488 5485 5482 5479 5476 5472 5468 5464 5460 5457 5452 5447 5442 5437 5432 5427 5421 5415 5410 5404 5397 5391 5385 5378 5371 5364 5356 5349 5341 5333 5326 5319 5312 5305 5298 5289 5281 5274 5266
5489 5486 5484 5481 5478 5475 5472 5468 5464 5459 5455 5450 5446 5441 5437 5431 5425 5420 5414 5408 5402 5396 5390 5383 5375 5367 5360 5353 5346 5338 5330 5322 5313 5304 5294 5286 5278 5271 5263 5255 5249 5243 5237
5480 5477 5474 5471 5467 5464 5460 5455 5450 5446 5441 5436 5430 5424 5418 5412 5406 5401 5394 5386 5379 5372 5365 5358 5350 5342 5334 5327 5319 5311 5302 5293 5284 5274 5265 5256 5249 5242 5235 5229 5223 5216 5209
5471 5468 5464 5460 5456 5451 5446 5441 5436 5431 5425 5419 5413 5407 5401 5394 5387 5380 5373 5365 5357 5349 5341 5334 5326 5317 5308 5300 5291 5282 5274 5265 5256 5248 5241 5233 5225 5218 5211 5205 5198 5192 5186
5461 5457 5453 5448 5443 5437 5432 5427 5421 5416 5410 5403 5397 5390 5383 5375 5368 5360 5353 5345 5336 5327 5318 5309 5300 5291 5282 5273 5263 5254 5247 5240 5232 5225 5218 5211 5203 5196 5189 5181 5176 5171 5168
5448 5444 5439 5434 5429 5424 5418 5413 5407 5400 5394 5386 5379 5373 5365 5357 5349 5341 5332 5323 5313 5304 5294 5285 5276 5266 5257 5248 5239 5231 5224 5217 5209 5202 5195 5187 5180 5173 5167 5160 5156 5152 5149
5435 5431 5426 5421 5415 5409 5403 5397 5390 5384 5377 5369 5362 5354 5346 5337 5328 5319 5310 5300 5290 5280 5270 5261 5252 5243 5235 5227 5219 5211 5203 5195 5187 5179 5173 5166 5159 5152 5147 5142 5139 5136 5134